TIANLIAN 1-04

Last updated on Tue Sep 22 2026 00:03:14 GMT+0000 (Coordinated Universal Time)

1 41869U 16072A 26264.59532449 .00000028 00000+0 00000+0 0 9993 2 41869 1.1104 81.9887 0047051 96.7663 212.8286 1.00272743 36264
UTC large
Height (km)
Speed (km/s)
/
Latitude / Longitude
Inclination (degrees)
Orbital Period (minutes)
Azimuth
Elevation
Range (km)
Doppler Factor

Next 0 passes for location: London (51.5072 / 0.1276)

No passes found over London.
TIANLIAN 1-04